CAPE
0 0 0 0 0 0 0 0 8 2 0 196 419 449 109 1 333 138 0 1460 1559 1315 798 894 1075 1057 927 766 534 246 58 25 10 0 0 8 32 48 120 195 344 359 135 0 0 0 0 0 0
0 0 0 0 0 0 0 4 12 0 244 215 343 679 455 252 1012 772 368 1598 1635 1255 783 884 942 900 853 605 313 140 77 54 31 0 14 47 84 180 276 286 391 409 66 0 0 0 0 0 0
0 0 0 0 0 0 2 0 1 14 301 519 717 1067 910 500 665 1206 1544 1700 1660 1111 532 933 766 787 632 387 260 172 144 78 21 34 115 111 335 458 427 430 413 400 0 0 0 0 0 0 0
0 0 0 0 0 0 0 0 0 16 208 697 851 941 1131 1437 1542 1494 1646 1622 1677 1144 379 508 571 490 338 235 199 177 131 74 83 132 166 221 514 528 522 477 434 309 12 0 0 0 0 0 0
0 0 0 0 2 13 0 3 185 419 336 556 909 550 826 1622 1163 1277 1372 1407 980 245 95 133 383 279 190 161 170 185 154 135 148 151 138 207 263 375 514 543 386 103 0 0 0 0 0 0 0
0 0 0 2 4 0 0 115 116 609 750 1075 861 698 1318 1450 950 526 459 289 248 33 0 44 49 24 40 81 77 143 181 206 192 177 161 168 143 190 269 203 102 39 0 0 0 0 0 0 0
0 0 2 16 12 2 44 314 553 515 774 772 820 687 1541 1092 484 64 4 11 6 0 0 2 8 0 0 0 35 91 175 249 270 235 180 144 113 114 132 144 73 26 0 0 0 0 0 0 0
0 0 0 13 10 37 28 224 347 67 330 954 820 759 908 770 277 3 4 4 4 0 2 2 1 0 0 0 0 14 179 282 261 205 163 118 84 57 62 51 27 0 0 0 0 0 0 0 0
0 0 2 15 18 49 46 36 438 475 481 1013 1091 1096 934 367 88 2 2 5 4 3 3 3 1 0 0 0 0 0 70 179 164 139 77 77 49 17 34 47 18 1 0 0 0 0 0 0 0
0 7 19 0 5 0 4 16 107 99 0 903 1187 1247 698 236 197 33 4 2 5 4 3 2 2 2 2 0 0 2 35 135 127 126 93 65 53 73 81 35 12 0 0 0 0 0 0 0 0
0 0 2 7 10 2 29 33 0 24 0 397 930 979 548 357 314 71 3 3 5 5 3 3 4 2 2 4 0 33 58 117 108 108 109 99 116 94 74 12 0 0 0 0 0 0 0 0 0
0 0 1 14 1 0 0 16 18 237 772 878 1320 947 547 430 149 19 6 5 1 3 2 2 2 2 0 1 31 56 113 144 138 135 150 157 153 111 41 0 0 0 0 0 0 0 0 0 0
0 0 5 4 5 39 10 2 143 534 996 1393 918 683 455 280 143 14 3 4 2 3 2 1 0 1 15 11 14 28 80 97 93 98 143 195 187 177 11 0 0 0 0 0 0 0 0 0 0
4 0 0 10 7 18 0 73 481 861 1197 1023 682 520 304 279 193 121 12 1 1 0 0 1 7 0 0 6 16 27 31 5 58 111 153 218 181 160 25 0 0 0 0 0 0 0 0 0 0
0 0 0 2 45 5 47 56 7 946 1059 1018 896 790 483 324 208 78 9 1 0 0 0 1 11 36 41 66 129 111 77 26 70 59 100 158 140 134 54 22 0 0 0 0 0 0 0 0 0
0 0 3 2 22 38 36 4 0 720 875 849 777 650 609 329 261 69 31 51 1 2 0 1 0 53 91 122 141 51 27 28 44 21 93 113 121 117 71 27 0 0 0 0 0 0 0 0 0
3 0 0 12 18 32 46 18 2 216 590 802 521 480 545 297 165 223 127 64 7 0 1 8 22 46 33 15 29 18 66 16 0 0 161 321 138 162 94 28 0 0 0 0 0 0 0 0 0
4 2 24 17 26 10 18 16 78 374 395 550 484 444 540 314 185 123 62 35 16 16 24 9 3 16 19 31 0 1 2 0 0 19 126 357 471 404 185 37 2 0 0 0 0 0 0 0 0
0 22 23 41 13 6 30 43 38 428 376 538 466 411 402 415 244 174 115 30 19 12 1 0 0 0 31 43 4 0 0 4 4 100 229 438 491 492 355 174 10 0 0 0 0 0 0 0 0
1 37 15 32 2 4 12 44 1 42 395 397 511 269 381 475 324 174 166 72 1 0 1 2 0 0 76 129 59 0 0 0 0 13 248 476 498 383 254 184 5 0 0 0 0 0 0 0 0
3 26 26 20 8 1 0 9 18 0 175 443 577 388 193 354 386 328 177 225 102 37 35 104 112 82 128 121 95 0 0 0 15 31 175 451 432 254 204 134 2 0 0 0 0 0 0 0 0
20 8 0 1 3 18 4 13 0 2 36 216 418 669 346 216 323 557 571 490 451 271 146 146 196 234 314 316 213 49 0 0 0 24 101 268 186 111 78 19 0 0 0 0 0 0 0 0 1
12 0 0 3 28 32 61 11 4 1 0 21 189 599 506 263 205 342 621 702 623 550 424 357 299 320 406 447 381 300 65 1 10 38 105 260 224 112 30 0 0 0 0 0 0 0 0 0 0
1 0 0 2 19 40 9 26 8 0 0 8 10 106 421 414 242 251 453 671 630 634 690 611 499 441 482 554 572 575 403 259 3 14 383 365 196 33 1 0 0 0 0 0 0 0 0 0 0
0 1 9 18 33 10 22 4 6 3 0 0 0 2 112 315 483 420 301 557 706 661 772 856 806 589 551 625 698 718 678 635 453 306 322 105 121 8 0 0 0 0 0 0 0 0 0 0 0
4 13 53 7 32 0 1 0 10 2 0 0 5 33 61 103 285 523 601 370 635 772 888 1004 995 954 766 925 974 1033 1011 952 821 486 186 87 79 45 1 1 0 0 0 0 0 0 0 0 0
28 10 40 56 36 6 22 19 3 0 0 0 0 11 94 101 67 333 611 742 533 806 1067 1251 1137 1040 999 1051 1141 1268 1250 1177 1061 667 299 48 58 0 0 0 0 0 0 0 0 0 0 0 0
6 28 14 6 38 41 42 45 47 0 7 0 0 0 0 66 139 305 583 795 955 976 1154 1385 1501 1338 1236 1207 1224 1224 1045 887 800 540 153 65 5 0 0 0 0 0 0 0 0 0 0 0 0
0 25 23 41 29 89 46 72 21 0 0 0 0 0 0 7 160 291 359 549 814 1052 1344 1513 1572 1557 1487 1477 1304 1146 807 434 255 161 33 2 2 2 2 1 0 0 0 0 2 0 0 0 0
16 6 36 27 20 6 20 37 26 0 1 0 0 0 0 55 99 262 370 420 497 842 1089 1386 1437 1526 1484 1479 1414 934 539 271 143 64 39 1 0 0 0 0 0 0 0 2 0 0 0 0 0
CIN
0 0 0 0 0 0 0 0 -21 -26 0 -10 -13 -26 -8 -1 -20 -49 0 -1 -26 -40 -135 -64 -14 -4 -1 0 -24 -93 -152 -198 -211 0 0 -141 -94 -76 -38 -8 -2 0 -9 0 0 0 0 0 0
0 0 0 0 0 0 0 -23 -13 -1 -2 -4 -14 -9 -10 -18 -12 -50 -77 -2 -13 -23 -91 -18 -10 -2 -2 -9 -47 -82 -110 -147 -164 0 -151 -108 -66 -38 -14 -10 -3 0 -10 0 0 0 0 0 0
0 0 0 0 0 -9 -4 0 -6 -4 -8 -3 -2 -10 -12 -10 -23 -5 -7 -48 -11 -4 -46 -10 -12 0 -4 -25 -58 -88 -93 -124 -150 -137 -83 -70 -9 -6 -10 -5 -3 -1 0 0 0 0 0 0 0
0 0 0 0 0 0 0 0 0 -3 -3 -9 -4 0 -18 -77 -39 -29 -20 -15 -1 -1 -14 -3 -6 -3 -12 -25 -34 -49 -79 -111 -96 -60 -39 -28 0 -1 -1 -1 -1 -3 -48 0 0 0 0 0 0
0 0 0 0 -3 -6 0 -1 -4 -3 -2 -1 -1 -8 -10 -54 -121 -41 -24 -40 -91 -225 -124 0 0 -6 -16 -7 -9 -12 -27 -32 -24 -25 -34 -24 -14 -9 -2 -1 -5 -42 0 0 0 0 0 0 0
0 0 0 -8 -27 0 0 -3 -18 -1 -3 -2 -7 -9 -7 -24 -98 -146 -169 -175 -260 -228 0 -8 0 -29 -10 -16 -10 -2 -1 -1 -1 -13 -47 -65 -69 -56 -36 -44 -80 -115 0 0 0 0 0 0 0
0 0 -4 -5 -8 -9 -9 -6 -1 -2 -3 -2 -2 -8 -21 -94 -145 -265 0 -72 -56 0 0 -17 -83 0 0 -1 -7 -4 -4 -2 -2 -7 -70 -115 -121 -118 -89 -81 -108 -183 -53 0 0 0 0 0 0
0 0 0 -6 -9 -9 -29 -4 -21 -26 -8 -19 -8 -3 -2 -133 -146 0 0 0 0 0 0 0 0 0 0 0 0 -12 -9 -8 -11 -57 -121 -155 -127 -179 -190 -204 -238 0 0 0 0 0 0 0 0
0 0 -15 -13 -4 -10 -16 -6 -31 -44 -8 -6 -9 -2 -101 -155 -206 0 0 0 0 0 0 0 0 0 0 0 0 0 -2 -5 -39 -86 -145 -146 -129 -221 -205 -229 -311 -91 0 0 0 0 0 0 0
0 -7 -8 -3 -9 -12 -7 -9 -4 -32 0 -1 -35 -49 -94 -125 -85 -147 -82 0 0 0 0 0 0 0 0 0 0 0 -9 -12 -41 -73 -73 -62 -94 -113 -115 -237 -310 -29 0 0 0 0 0 0 0
0 0 -12 -6 -7 -8 -5 -6 0 -40 0 -4 0 -92 -102 -68 -25 -66 0 0 0 0 0 0 0 0 0 0 0 -1 -1 -13 -55 -45 -47 -74 -34 -86 -142 -255 0 0 0 0 0 0 0 0 0
0 0 -3 -6 -13 -4 -12 -10 -6 -2 -8 -28 -23 -100 -105 -47 -51 -73 0 0 0 0 0 0 0 0 0 0 -1 -3 -3 -21 -43 -51 -50 -25 -27 -35 -125 0 0 0 0 0 0 0 0 0 0
0 0 -4 -2 -6 -8 -17 -8 -20 -3 -12 -36 -115 -98 -72 -37 -19 -63 0 0 0 0 0 0 0 0 -3 -3 -7 -14 -29 -23 -35 -42 -33 -7 -3 -7 -87 0 0 0 0 0 0 0 0 0 0
-2 0 -1 -3 -7 -18 0 -7 -11 -3 -14 -69 -80 -56 -22 -2 -2 -3 -12 0 0 0 0 -1 -1 0 -23 -31 -18 -15 -31 -44 -45 -36 -9 -1 -2 -9 -33 0 0 0 0 0 0 0 0 0 0
0 0 0 -2 -4 -2 -8 -6 -93 -15 -39 -58 -29 -2 -6 -4 -4 -17 -29 0 0 0 0 -3 -2 -10 -10 -4 -2 -1 -15 -24 -29 -14 -2 -1 -6 -15 -20 -44 0 0 0 0 0 0 0 0 0
0 0 -4 -17 -6 -4 -4 -49 0 -7 -33 -49 -25 -19 -2 -1 -2 -23 -73 -44 0 -1 0 -7 -2 -6 -2 -1 -2 -4 -24 -28 -11 -1 -4 -21 -24 -45 -32 -34 -6 0 0 0 0 0 0 0 0
-2 -1 0 -20 -4 -13 -3 -46 -101 -10 -6 -5 -23 -23 -15 -8 -4 -11 -47 -69 -3 -1 -1 -9 -1 -2 -2 -3 -5 -6 -1 -8 0 0 -1 -1 -29 -12 -28 -48 0 0 0 0 0 0 0 0 0
-20 -14 -10 -7 -32 -18 -5 -3 -40 -12 -11 -4 -1 -6 -1 -3 -2 -24 -48 -72 -118 -98 -82 -90 -1 -1 0 -1 0 -1 -1 0 0 -5 -1 -2 0 -3 -21 -36 -43 0 0 0 0 0 0 0 0
0 -4 -9 -8 -9 -23 -2 -7 -14 -5 -9 -2 -2 -2 -9 -1 -2 -8 -18 -96 -89 -115 -40 0 0 0 -22 -24 -88 0 0 -84 -53 -2 -1 -1 -1 -1 -11 -7 -21 0 0 0 0 0 0 0 0
-8 -5 -7 -5 -20 -21 -8 -11 -12 -3 -12 -3 -3 -5 -5 -3 -4 -13 -17 -64 -16 0 -35 -24 0 0 -18 -16 -27 0 0 0 0 -29 0 0 -3 -6 -19 -14 -20 0 0 0 0 0 0 0 0
-14 -5 -20 -9 -14 -16 -13 -18 -13 -1 -9 -14 -6 -15 -51 -12 -7 -10 -34 -28 -64 -84 -94 -44 -37 -43 -31 -34 -39 0 0 0 -103 -75 -28 -9 -3 -16 -22 -22 -38 0 0 0 0 0 0 0 0
-10 -4 0 -2 -4 -13 -6 -20 0 -6 -15 -16 -21 -34 -54 -38 -28 -7 -18 -35 -40 -61 -87 -67 -41 -29 -20 -23 -34 -92 0 0 0 -84 -30 -26 -28 -51 -32 -44 0 0 0 0 0 0 0 0 -1
-3 0 0 -5 -6 -8 -7 -4 -43 -7 0 -4 -9 -29 -26 -26 -45 -24 -25 -39 -65 -64 -78 -84 -80 -57 -32 -30 -30 -31 -86 -8 -98 -77 -28 -61 -23 -42 -54 0 0 0 0 0 0 0 0 0 0
-4 0 0 -2 -4 -4 -34 -5 -47 -8 0 -8 -5 -10 -12 -19 -24 -24 -18 -34 -53 -53 -46 -59 -67 -61 -34 -20 -20 -16 -32 -54 -17 -44 -21 -20 -38 -89 -1 0 0 0 0 0 0 0 0 0 0
0 -1 -5 -9 -15 -5 -31 -11 -21 -22 0 0 0 0 -3 -12 -21 -22 -26 -31 -49 -59 -73 -68 -63 -76 -70 -50 -46 -51 -34 -28 -37 -29 -17 -23 -31 -50 0 0 0 0 0 0 -2 0 0 0 0
-3 -5 -4 -12 -6 -5 -14 0 -10 -1 0 0 -15 -21 -22 -29 -18 -26 -27 -32 -37 -52 -67 -75 -77 -71 -61 -68 -44 -24 -28 -23 -23 -27 -121 -61 -88 -51 -98 -1 0 0 0 0 0 0 0 0 0
-5 -6 -8 -21 -30 -28 -8 -6 -1 0 0 0 0 -36 -11 -30 -47 -28 -7 -22 -35 -37 -42 -58 -48 -53 -46 -59 -39 -26 -25 -15 -6 -32 -57 -107 -78 0 0 0 0 0 0 0 0 0 0 0 0
-3 -6 -9 -6 -6 -4 -12 -4 -14 0 -44 0 0 0 0 -44 -45 -43 -26 -4 -28 -25 -19 -20 -33 -34 -27 -16 -36 -49 -62 -69 -50 -40 -85 -92 -45 0 0 0 0 0 0 0 0 0 0 0 0
0 -5 -10 -9 -27 -4 -4 -4 -27 0 0 0 0 0 0 -37 -44 -61 -57 -34 -5 -6 -4 -6 -20 -24 -20 -7 -15 -43 -94 -155 -145 -127 -165 -1 0 0 0 0 0 0 0 0 0 0 0 0 0
-25 -2 -6 -3 -3 -4 -6 -16 -16 0 -2 0 0 0 0 -34 -28 -45 -62 -81 -70 -48 -16 -6 -20 -15 -5 -2 -2 -93 -148 -175 -181 -176 -157 -1 0 0 0 0 0 0 0 0 0 0 0 0 0
Wind_Speed
11 9 9 10 15 12 13 10 31 25 28 28 21 27 34 38 37 40 34 15 15 8 6 8 9 10 11 11 11 11 11 10 11 12 14 16 16 18 19 20 20 20 20 19 19 19 20 20 21
11 12 10 12 14 16 9 9 18 21 22 30 24 25 30 32 22 24 29 24 14 8 9 9 10 10 12 12 11 10 9 9 10 12 14 16 16 16 18 19 19 19 18 18 18 18 18 20 21
11 10 14 11 11 11 14 20 24 20 20 24 20 21 20 27 22 18 16 14 12 8 10 10 12 12 12 12 11 11 10 10 10 12 14 14 15 15 16 18 19 18 18 18 17 17 18 20 20
13 12 11 13 10 4 20 26 20 23 16 11 19 16 16 20 21 24 25 20 15 11 14 12 13 13 13 12 11 10 10 10 11 12 12 13 15 15 16 18 17 18 17 17 16 17 17 19 20
10 12 15 11 8 15 21 21 22 22 20 21 14 20 11 20 21 21 19 18 12 12 18 16 13 12 13 12 10 9 8 9 10 11 11 13 14 14 15 16 16 15 15 15 15 16 16 18 19
13 14 14 12 11 18 16 16 17 20 21 18 11 21 18 19 20 20 16 13 13 13 11 17 10 7 8 9 7 7 7 8 8 10 12 12 13 12 11 13 12 12 12 14 13 14 16 18 20
12 14 14 17 19 22 13 17 16 20 22 8 24 25 15 19 17 16 14 13 10 10 6 4 5 7 7 6 2 4 6 7 7 8 11 13 12 12 9 9 10 11 12 12 12 14 16 18 19
13 12 10 6 17 17 15 15 17 21 25 23 24 18 17 12 13 13 14 13 11 9 6 8 11 10 8 4 3 4 5 6 7 8 8 12 11 12 9 9 7 9 10 11 12 14 16 17 19
9 9 7 12 22 17 16 17 15 20 14 11 21 24 17 10 9 11 11 11 12 10 7 12 12 16 19 21 19 12 20 13 14 10 11 9 8 10 9 5 5 7 9 10 12 14 16 17 18
7 5 15 20 22 25 24 10 17 6 24 6 13 17 13 10 7 8 8 9 11 10 9 10 15 16 19 17 18 18 21 21 18 16 12 7 5 5 7 3 3 7 9 10 12 14 15 14 17
6 4 21 16 20 25 26 23 7 15 18 21 18 12 11 10 10 9 8 7 8 9 9 10 11 11 12 13 14 12 18 13 16 15 12 9 2 4 2 1 6 6 8 10 11 14 14 18 18
6 9 16 7 21 25 26 25 25 26 25 22 16 13 11 11 10 10 6 5 6 6 6 6 10 8 5 11 13 10 12 13 13 13 13 5 1 3 2 4 4 6 8 10 12 15 16 17 17
6 8 7 4 23 26 25 2 18 20 20 19 18 14 13 12 10 8 7 5 5 5 7 12 11 3 2 6 9 12 13 12 11 13 8 3 2 12 2 7 4 6 8 10 12 13 14 15 16
10 5 10 6 16 7 2 5 8 11 14 16 15 15 12 10 10 7 6 5 5 5 7 8 7 5 8 10 14 10 9 8 10 5 3 6 31 24 17 8 5 7 7 9 11 12 13 14 15
4 6 12 9 10 13 8 26 26 11 12 12 13 14 15 14 13 10 7 8 9 11 6 5 10 13 15 14 11 8 9 10 15 32 33 31 30 12 7 6 5 5 7 9 11 11 13 13 14
4 8 10 10 11 4 4 8 17 11 13 13 12 13 14 15 15 17 17 15 18 19 23 24 22 18 11 11 14 28 33 33 33 32 29 29 27 6 2 3 4 6 7 8 8 9 10 10 12
6 11 5 5 4 10 3 7 21 12 12 12 10 10 12 14 14 17 22 18 19 25 29 33 35 34 34 34 33 32 32 32 30 28 22 18 8 1 1 3 3 3 4 6 7 9 9 10 12
13 4 7 3 9 4 22 27 19 14 11 9 9 9 11 11 17 18 21 23 26 25 30 31 31 31 30 29 29 28 27 29 27 19 19 5 3 8 6 1 3 1 2 5 7 9 9 11 13
18 22 7 8 10 18 13 11 18 10 9 8 8 8 8 12 18 19 21 23 27 26 28 28 29 28 26 23 23 21 21 20 18 13 8 1 6 8 3 6 3 1 3 4 6 7 9 11 12
5 4 4 10 11 12 20 25 16 10 8 7 6 9 8 11 18 19 22 23 25 26 27 26 24 23 23 20 17 16 14 12 10 6 2 7 9 6 8 8 8 4 5 4 4 6 9 9 11
6 4 15 11 17 15 20 21 14 7 7 10 8 8 12 19 18 20 22 23 25 25 25 24 23 22 19 17 11 10 6 5 5 5 3 6 6 7 7 10 11 7 8 8 7 7 9 11 11
5 8 20 23 21 20 25 23 24 6 9 9 12 15 17 19 20 20 21 22 24 24 23 24 22 20 16 15 13 11 9 8 6 6 3 8 8 7 7 9 11 11 12 13 10 9 10 12 12
6 11 7 18 23 25 22 24 12 17 4 6 14 16 18 18 20 21 21 21 21 21 21 21 21 19 16 13 15 8 8 5 3 4 4 6 8 8 10 10 12 15 15 12 12 12 10 12 15
6 11 12 18 21 16 21 26 20 7 6 8 9 13 18 20 20 21 20 19 18 18 18 17 18 17 17 13 11 10 7 8 6 5 7 9 12 13 13 12 11 11 12 13 13 11 12 15 15
9 10 7 4 12 6 22 22 14 23 13 12 9 7 13 18 20 17 18 17 17 19 18 18 19 18 15 15 13 12 11 9 9 6 7 6 11 9 14 11 11 14 16 15 11 11 12 14 18
8 15 8 6 8 11 9 17 19 12 15 13 11 9 17 11 9 13 13 14 16 17 19 19 18 17 15 14 13 12 12 9 8 8 6 9 9 10 12 12 14 16 17 10 11 11 14 15 17
5 12 11 18 18 18 21 15 13 12 13 12 12 14 13 16 10 6 12 14 15 15 16 16 17 16 15 13 10 10 9 9 8 8 8 10 11 10 12 13 13 13 14 12 11 13 16 18 20
3 10 5 1 3 3 19 17 13 10 14 12 11 13 14 13 13 10 5 10 12 13 13 12 12 10 9 9 9 10 11 11 11 12 11 12 12 13 12 10 13 10 7 10 11 13 17 20 23
3 3 8 4 10 4 4 17 13 14 11 11 13 12 15 15 13 12 12 8 8 9 9 10 10 9 9 9 9 9 12 12 13 14 14 14 14 13 11 12 11 9 8 10 11 13 17 22 23
2 9 15 6 5 4 9 22 20 16 10 17 11 12 12 13 15 13 11 9 5 5 8 7 8 9 9 9 9 9 12 14 15 15 15 15 16 14 13 12 11 7 9 13 16 16 18 23 28
Wind_Direction
28 32 29 12 348 344 319 296 251 288 290 288 293 285 279 262 262 257 289 277 282 251 210 188 183 168 163 157 147 138 128 118 106 92 86 85 85 85 86 85 81 79 76 71 64 57 53 47 43
28 28 25 2 340 332 322 322 303 301 302 287 318 293 275 266 291 291 278 265 286 254 229 204 195 184 168 161 155 147 137 123 108 98 94 91 87 86 89 89 85 80 75 70 64 57 48 43 40
36 37 0 340 331 324 336 321 298 313 318 301 305 301 295 282 297 313 319 297 290 265 236 211 192 181 170 161 156 146 136 122 111 105 98 91 87 88 89 93 89 81 76 71 62 52 47 42 38
28 27 15 357 340 359 320 288 325 308 321 324 304 310 306 305 301 305 302 286 275 260 246 207 193 178 173 169 159 151 138 127 118 109 101 92 89 86 88 94 88 82 75 69 58 50 41 40 35
33 15 357 337 351 332 312 310 313 312 305 336 318 212 308 312 315 320 314 293 280 281 281 191 198 185 171 163 156 151 145 132 123 114 104 96 91 86 87 89 85 78 73 64 55 45 36 32 27
5 18 358 356 14 334 333 327 326 331 314 323 334 288 325 318 317 318 333 314 299 285 298 343 177 197 173 158 152 153 143 134 126 119 110 101 94 89 86 83 80 75 67 60 47 40 34 28 26
8 358 347 353 327 321 338 328 328 327 318 12 297 293 320 313 317 323 333 345 333 311 323 67 103 125 148 96 116 159 146 131 126 121 116 105 96 92 87 78 75 70 62 51 41 37 31 28 23
16 9 1 36 327 318 339 345 327 317 297 305 280 293 319 327 322 344 348 356 9 31 55 104 131 116 140 139 113 234 200 163 138 137 117 102 103 94 87 77 65 60 52 43 36 32 27 17 18
39 23 25 4 296 307 306 337 341 338 205 5 281 290 322 0 355 352 359 2 33 37 67 111 111 120 122 123 121 123 122 109 114 126 121 112 104 93 82 70 56 47 43 40 37 30 22 19 19
51 43 8 326 299 267 278 8 332 89 238 123 352 296 360 5 9 358 10 34 52 65 69 94 114 121 121 121 122 125 130 123 120 117 113 106 110 95 77 58 26 40 40 29 27 24 36 42 15
58 124 301 350 313 270 270 262 56 313 262 264 319 8 6 7 349 355 4 43 65 70 79 96 110 122 119 119 122 126 130 124 124 122 112 115 117 92 72 308 52 23 23 13 18 14 15 1 1
43 165 210 30 307 266 266 273 279 272 325 332 5 17 5 0 354 355 11 30 64 65 68 88 113 117 128 119 125 135 132 129 126 121 115 151 185 100 252 67 26 25 35 27 13 2 12 15 12
54 165 166 83 249 263 278 332 318 315 338 358 15 8 355 348 346 348 342 14 64 82 95 112 115 112 204 116 120 131 131 129 126 125 125 161 203 243 244 281 352 48 4 20 21 20 15 11 18
32 126 197 179 203 355 200 134 14 350 8 8 16 25 17 17 3 27 42 55 77 81 100 115 107 99 122 123 125 131 134 134 126 148 185 169 186 218 245 281 323 348 37 37 31 19 18 21 19
50 180 209 159 151 181 353 231 271 25 32 26 34 45 46 66 54 38 65 79 91 100 91 93 111 117 119 117 117 125 126 130 182 178 179 194 199 259 293 305 347 44 34 24 9 22 15 19 20
162 184 198 358 169 82 32 305 177 50 51 41 52 35 50 69 75 53 90 96 104 100 112 117 117 118 111 115 117 151 181 176 177 176 170 175 176 118 53 58 17 354 358 25 38 38 25 23 18
154 195 171 57 109 342 94 6 200 47 27 29 44 47 60 67 69 79 111 95 101 112 116 130 133 137 151 157 165 169 168 177 172 169 156 152 142 296 350 353 97 28 56 45 35 14 17 8 5
360 112 122 117 357 66 236 258 340 1 12 44 44 69 84 77 113 106 109 113 119 119 133 136 142 149 147 143 157 162 159 171 168 154 159 148 166 287 296 311 328 42 54 5 10 356 1 354 353
323 298 27 44 25 302 263 168 327 11 19 46 44 76 77 107 130 124 131 135 141 137 143 148 150 149 148 144 148 149 153 156 158 155 155 235 292 289 263 297 293 246 325 343 350 352 346 348 351
74 55 53 9 8 355 299 242 334 351 32 57 68 96 90 110 133 133 140 143 148 148 152 153 150 148 152 150 148 150 151 153 157 161 232 289 290 287 284 286 288 275 303 311 338 338 341 341 347
104 30 331 341 200 185 215 219 179 30 75 107 104 94 130 147 141 143 147 150 155 156 158 157 156 157 157 154 142 144 142 150 166 181 218 282 274 277 268 283 287 281 287 298 309 320 321 327 340
116 128 213 243 218 242 239 278 211 78 118 117 134 144 150 153 155 151 155 158 161 163 162 165 163 163 160 159 157 161 163 169 176 186 241 288 290 274 268 279 282 281 285 291 297 304 310 315 320
148 341 120 197 229 250 208 230 134 185 33 126 156 158 159 157 159 162 160 162 163 164 166 168 171 172 169 168 176 172 178 186 197 204 255 275 275 269 282 289 290 288 289 287 293 298 301 312 314
77 302 189 192 208 202 245 228 293 178 108 33 126 154 166 167 166 167 165 163 166 167 169 170 174 176 176 176 183 191 195 198 206 235 282 295 291 290 285 284 282 277 279 284 286 293 301 311 315
137 143 130 19 328 137 265 273 310 239 348 2 15 106 158 174 177 173 173 172 172 174 176 176 178 181 182 184 188 194 200 206 215 249 271 278 297 289 292 276 280 286 289 284 279 291 304 309 312
141 164 121 56 353 287 342 300 299 327 336 355 3 355 293 300 183 190 189 186 181 180 179 181 183 187 188 190 193 196 199 210 233 262 274 276 298 285 302 292 294 295 290 280 291 297 303 308 313
134 164 243 303 292 301 285 316 339 346 351 357 350 335 320 304 309 214 195 189 187 186 187 188 188 190 194 199 211 214 223 239 264 268 269 292 307 305 313 302 299 296 289 289 298 304 305 305 308
97 154 137 247 35 349 303 302 330 358 348 20 25 341 336 332 322 314 271 197 196 193 193 195 200 209 220 225 239 253 269 268 281 294 286 295 307 309 307 304 305 301 294 290 301 304 311 308 312
177 140 153 46 306 345 355 308 327 340 352 357 355 357 331 333 339 328 312 292 200 203 205 208 217 227 234 237 251 267 287 285 289 297 298 301 307 311 311 317 326 311 318 303 309 311 311 311 312
218 174 175 191 192 307 307 281 317 319 334 325 336 341 342 337 330 334 337 337 316 240 231 238 245 255 259 267 279 287 297 302 302 305 309 314 319 324 323 323 324 311 320 309 314 314 315 314 314